St. Johns, AZ

8:06 PM MST on October 23, 2019 (GMT -0700)
Saint Johns Industrial

Weather History for KSJN - August, 2019

Change the Weather History Date:

Saturday, August 10, 2019

  Actual Average (WUND) Record (WUND)
Temperature  
Mean Temperature 66 °F -  
Max Temperature 81 °F - - (-1)
Min Temperature 50 °F - - (-1)
Growing Degree Days 16 (Base 50)    
Moisture  
Dew Point 54 °F    
Average Humidity 64    
Maximum Humidity 93    
Minimum Humidity 25    
Precipitation  
Precipitation 0.12 in - - ()
Sea Level Pressure  
Sea Level Pressure 29.96 in    
Wind  
Wind Speed 4 mph (SE)    
Max Wind Speed 18 mph    
Max Gust Speed 33 mph    
Visibility 10 miles    
Events Rain , Thunderstorm    
Averages and records for this station are not official NWS values.
T = Trace of Precipitation, MM = Missing Value Source: NWS Daily Summary

Daily Weather History Graph

Daily Weather History Graph

Search for Another Location

Airport or City:

Astronomy

Aug. 10, 2019 Rise Set
Actual Time 5:34 AM MST 7:10 PM MST
Civil Twilight 5:07 AM MST 7:37 PM MST
Nautical Twilight 4:35 AM MST 8:10 PM MST
Astronomical Twilight 4:00 AM MST 8:44 PM MST
Moon 3:51 PM MST (8/10) 1:17 AM MST (8/10)
Length of Visible Light 14h 30m
Length of Day
13h 36m
Waxing Gibbous, 80% of the Moon is Illuminated
Aug 10
Waxing Gibbous
Aug 15
Full
Aug 23
Last Quarter
Aug 30
New
Sep 5
First Quarter

Hourly Weather History & Observations

Time (MST) Temp. Dew Point Humidity Pressure Visibility Wind Dir Wind Speed Gust Speed Precip Events Conditions
12:54 AM 62.1 °F 55.9 °F 80% 29.96 in 10.0 mi Calm Calm - N/A   Clear
1:54 AM 61.0 °F 57.0 °F 87% 29.94 in 10.0 mi Calm Calm - N/A   Clear
2:54 AM 61.0 °F 57.0 °F 87% 29.92 in 10.0 mi South 3.5 mph - N/A   Clear
3:54 AM 60.1 °F 55.9 °F 86% 29.93 in 10.0 mi South 3.5 mph - N/A   Clear
4:54 AM 57.9 °F 55.9 °F 93% 29.94 in 10.0 mi ESE 4.6 mph - N/A   Clear
5:54 AM 57.9 °F 54.0 °F 87% 29.97 in 10.0 mi Calm Calm - N/A   Clear
6:54 AM 60.1 °F 57.0 °F 90% 29.97 in 10.0 mi Calm Calm - N/A   Clear
7:54 AM 63.0 °F 55.9 °F 78% 29.98 in 10.0 mi Calm Calm - N/A   Clear
8:54 AM 68.0 °F 55.9 °F 65% 29.96 in 10.0 mi Calm Calm - N/A   Mostly Cloudy
9:54 AM 73.9 °F 55.9 °F 53% 29.94 in 10.0 mi NW 4.6 mph - N/A   Mostly Cloudy
10:54 AM 77.0 °F 53.1 °F 43% 29.92 in 10.0 mi NNW 5.8 mph - N/A   Clear
11:54 AM 78.1 °F 52.0 °F 40% 29.91 in 10.0 mi Variable 5.8 mph - N/A   Clear
12:54 PM 81.0 °F 52.0 °F 36% 29.86 in 10.0 mi Calm Calm - N/A   Clear
1:54 PM 82.0 °F 52.0 °F 35% 29.83 in 10.0 mi Variable 3.5 mph - N/A   Partly Cloudy
2:54 PM 75.9 °F 54.0 °F 46% 29.86 in 10.0 mi SSE 18.4 mph 33.4 mph N/A   Mostly Cloudy
3:11 PM 73.9 °F 53.1 °F 48% 30.12 in 10.0 mi SSE 18.4 mph 28.8 mph N/A Thunderstorm Overcast
3:40 PM 73.9 °F 52.0 °F 46% 30.13 in 10.0 mi SE 13.8 mph - N/A Thunderstorm Thunderstorm
3:54 PM 75.0 °F 50.0 °F 41% 29.88 in 10.0 mi ESE 12.7 mph - N/A   Overcast
4:11 PM 73.9 °F 51.1 °F 45% 30.13 in 10.0 mi ESE 12.7 mph - N/A Thunderstorm Overcast
4:26 PM 73.0 °F 54.0 °F 51% 30.14 in 10.0 mi ESE 5.8 mph - N/A   Overcast
4:54 PM 72.0 °F 53.1 °F 51% 29.90 in 10.0 mi ESE 4.6 mph - N/A   Overcast
5:54 PM 66.0 °F 60.1 °F 81% 29.95 in 8.0 mi NNE 3.5 mph - 0.04 in Rain Light Rain
6:54 PM 64.0 °F 60.1 °F 87% 29.93 in 10.0 mi SSE 13.8 mph - 0.05 in Rain Light Rain
7:44 PM 64.9 °F 57.0 °F 75% 30.14 in 10.0 mi South 18.4 mph - 0.01 in   Overcast
7:54 PM 64.9 °F 57.0 °F 75% 29.91 in 10.0 mi South 16.1 mph - 0.01 in Rain Light Rain
8:54 PM 66.0 °F 57.0 °F 73% 29.96 in 10.0 mi Calm Calm - 0.00 in   Overcast
9:54 PM 63.0 °F 60.1 °F 90% 29.94 in 10.0 mi SE 5.8 mph - 0.02 in   Overcast
10:54 PM 63.0 °F 60.1 °F 90% 29.91 in 10.0 mi SW 4.6 mph - 0.00 in Rain Light Rain
11:54 PM 64.0 °F 60.1 °F 87% 29.90 in 10.0 mi Calm Calm - 0.00 in   Overcast